CZ-3B R/B

Last updated on July 3, 2021, 12:02 a.m. UTC

1 48809U 21047B   21183.02838368  .00042329 -12723-6  14432-2 0  9994
2 48809  28.6295 121.3248 7211834 197.8490 109.4722  2.40975478   717
UTC
Height (km)
Latitude
Longitude
Inclination
Orbital Period
UTC large
Height (km)
Speed (km/s)
/
Latitude / Longitude
Inclination (degrees)
Orbital Period (minutes)
Azimuth
Elevation
Range (km)
Doppler Factor
iOS Compass Heading
iOS Angle

Next 30 passes for location: Hong Kong

Rise time Rise Azimuth (degrees) Set time Set Azimuth (degrees) Duration Max altitude (degrees)

No matching passes for this satellites